Location: Cactus School
(34.5700°N, 118.0931°W)
Time: 22:14:27
(UTC-07:00)

Vanguard 2 - Pass Details

Date: 02 May 2024
Orbit: 553 x 2914 km, 32.9° (Epoch: 18 May)

Event Time Altitude Azimuth Distance (km) Brightness Sun altitude
Rises 04:58:27 0° 283° (WNW) 5,851 11.6 -12.5°
Reaches altitude 10° 05:02:08 10° 278° (W) 5,095 11.2 -11.8°
Maximum altitude 05:16:52 47° 211° (SSW) 3,496 10.5 -9.1°
Drops below altitude 10° 05:33:04 10° 144° (SE) 5,534 12.1 -6.1°
Sets 05:37:19 0° 139° (SE) 6,369 12.5 -5.3°
